BEL9HA LPMA-EBBR

Flight info

Callsign BEL9HA
Flight time N/A
Altitude 38000
Route DEGUN DCT PECKY DCT OBESA DCT XANEL DCT DEMOS DCT LOTEE DCT AZFIC DCT ERIGA DCT GODIX DCT PODEM DCT VEKIN DCT ARVOL
Aircraft A320/M-DE3FGHIJ1LORVWY/H

Departure

Time 2026-05-04 10:54
Airport Cristiano Ronaldo International Airport (LPMA)

Arrival

Time N/A
Airport Brussels Airport (EBBR)
Time Latitude Longitude Altitude Speed Heading
2026-05-04 10:34 32.69437 -16.77556 177 ft 0 kts 138°
2026-05-04 10:44 32.69519 -16.77574 176 ft 0 kts 226°
2026-05-04 10:49 32.69426 -16.77689 176 ft 11 kts 226°
2026-05-04 10:49 32.69372 -16.77755 176 ft 10 kts 226°
2026-05-04 10:50 32.69327 -16.77811 176 ft 9 kts 227°
2026-05-04 10:51 32.69288 -16.77959 176 ft 11 kts 270°
2026-05-04 10:52 32.69259 -16.78066 176 ft 17 kts 229°
2026-05-04 10:52 32.69161 -16.78182 176 ft 21 kts 224°
2026-05-04 10:52 32.69053 -16.78307 176 ft 22 kts 224°
2026-05-04 10:54 32.72143 -16.74301 1584 ft 182 kts 56°
2026-05-04 10:54 32.72804 -16.72976 1977 ft 196 kts 73°
2026-05-04 10:56 32.66607 -16.60889 6128 ft 277 kts 113°
2026-05-04 10:56 32.65920 -16.58734 6909 ft 281 kts 108°
2026-05-04 10:56 32.65670 -16.56424 7630 ft 287 kts 86°
2026-05-04 10:57 32.66106 -16.54109 8362 ft 291 kts 67°
2026-05-04 10:57 32.67144 -16.52050 9102 ft 293 kts 47°
2026-05-04 10:57 32.68596 -16.50333 9854 ft 296 kts 42°
2026-05-04 10:57 32.70099 -16.48620 10405 ft 307 kts 42°
2026-05-04 10:58 32.71701 -16.46799 10596 ft 330 kts 42°
2026-05-04 10:58 32.73419 -16.44848 10860 ft 349 kts 42°
2026-05-04 10:58 32.75190 -16.42828 11443 ft 356 kts 42°
2026-05-04 10:58 32.76987 -16.40774 12091 ft 361 kts 42°
2026-05-04 10:59 32.78808 -16.38692 12715 ft 366 kts 42°
2026-05-04 10:59 32.80628 -16.36613 13352 ft 370 kts 42°
2026-05-04 10:59 32.82496 -16.34480 13977 ft 375 kts 42°
2026-05-04 10:59 32.84384 -16.32319 14523 ft 379 kts 42°
2026-05-04 11:00 32.86291 -16.30133 15073 ft 383 kts 42°
2026-05-04 11:01 33.00106 -16.14256 18894 ft 406 kts 41°
2026-05-04 11:02 33.02150 -16.11904 19374 ft 410 kts 41°
2026-05-04 11:02 33.04213 -16.09527 19831 ft 413 kts 41°
2026-05-04 11:05 33.34665 -15.74235 25608 ft 455 kts 41°
2026-05-04 11:06 33.36908 -15.71618 25919 ft 458 kts 41°
2026-05-04 11:06 33.39244 -15.69028 26225 ft 458 kts 36°
2026-05-04 11:06 33.41852 -15.66864 26537 ft 456 kts 26°
2026-05-04 11:06 33.44707 -15.65230 26859 ft 453 kts 16°
2026-05-04 11:08 33.66209 -15.58887 28976 ft 461 kts
2026-05-04 11:10 33.82142 -15.54324 30270 ft 469 kts
2026-05-04 11:12 34.04270 -15.47936 32044 ft 467 kts
2026-05-04 11:12 34.07433 -15.47025 32317 ft 466 kts
2026-05-04 11:12 34.10540 -15.46131 32586 ft 465 kts
2026-05-04 11:12 34.13690 -15.45222 32855 ft 464 kts
2026-05-04 11:13 34.16833 -15.44310 33137 ft 463 kts
2026-05-04 11:13 34.19971 -15.43399 33406 ft 462 kts
2026-05-04 11:13 34.23095 -15.42493 33681 ft 461 kts
2026-05-04 11:13 34.26214 -15.41590 33944 ft 460 kts
2026-05-04 11:14 34.29324 -15.40684 34264 ft 459 kts
2026-05-04 11:14 34.32424 -15.39781 34494 ft 458 kts
2026-05-04 11:14 34.35529 -15.38882 34697 ft 458 kts
2026-05-04 11:16 34.57129 -15.31756 35893 ft 469 kts 16°
2026-05-04 11:16 34.60150 -15.30239 36053 ft 469 kts 16°
2026-05-04 11:16 34.63159 -15.28730 36200 ft 469 kts 16°
2026-05-04 11:17 34.66184 -15.27211 36341 ft 469 kts 16°
2026-05-04 11:17 34.69203 -15.25694 36489 ft 470 kts 16°
2026-05-04 11:19 34.90330 -15.15087 37473 ft 469 kts 16°
2026-05-04 11:19 34.93344 -15.13563 37610 ft 469 kts 17°
2026-05-04 11:19 34.96356 -15.12036 37737 ft 469 kts 17°
2026-05-04 11:19 34.99366 -15.10512 37879 ft 468 kts 16°
2026-05-04 11:20 35.02374 -15.08998 38021 ft 467 kts 16°
2026-05-04 11:20 35.05376 -15.07487 38178 ft 467 kts 17°
2026-05-04 11:20 35.11398 -15.04448 38206 ft 470 kts 17°
2026-05-04 11:22 35.35576 -14.92157 38247 ft 470 kts 16°
2026-05-04 11:23 35.41566 -14.89096 38235 ft 469 kts 17°
2026-05-04 11:25 35.61616 -14.78831 38247 ft 467 kts 16°
2026-05-04 11:25 35.67608 -14.75737 38235 ft 467 kts 16°